EW6795 Weather Reports


Display with metric or nautical units.
time (UTC)temp
F
wind
direction
speed
MPH
gust
MPH
rain 1hr
in
rain 24hr
in
rain mn
in
humidity
%
barometer
mb
20260505101857 55 130 2.0 5.0 0.00 0.00 0.00 84 1012.5
20260505101325 55 189 2.0 5.0 0.00 0.00 0.00 84 1012.5
20260505100823 55 111 2.0 4.0 0.00 0.00 0.00 84 1012.5
20260505100322 54 158 1.0 3.0 0.00 0.00 0.00 84 1012.5
20260505095822 54 129 1.0 3.0 0.00 0.00 0.00 84 1012.5
20260505095218 54 139 0.0 3.0 0.00 0.00 0.00 84 1012.5
20260505094646 54 114 1.0 3.0 0.00 0.00 0.00 84 1012.2
20260505094144 54 155 2.0 3.0 0.00 0.00 0.00 84 1012.2
20260505093643 54 137 1.0 1.0 0.00 0.00 0.00 84 1012.2
20260505093111 54 135 0.0 1.0 0.00 0.00 0.00 84 1012.2
20260505092611 55 135 0.0 1.0 0.00 0.00 0.00 84 1012.2
20260505092110 55 156 0.0 0.0 0.00 0.00 0.00 83 1012.2
20260505091609 55 156 0.0 3.0 0.00 0.00 0.00 83 1011.9
20260505091108 55 156 0.0 3.0 0.00 0.00 0.00 83 1011.9
20260505090607 55 156 0.0 3.0 0.00 0.00 0.00 83 1011.9
20260505090107 55 142 2.0 2.0 0.00 0.00 0.00 83 1011.9
20260505085606 55 165 0.0 2.0 0.00 0.00 0.00 83 1011.9
20260505085034 55 165 0.0 2.0 0.00 0.00 0.00 83 1011.9
20260505084501 55 152 0.0 2.0 0.00 0.00 0.00 83 1011.9
20260505084001 55 101 0.0 2.0 0.00 0.00 0.00 83 1011.9
20260505083326 56 104 1.0 2.0 0.00 0.00 0.00 82 1011.9
20260505082826 56 152 1.0 2.0 0.00 0.00 0.00 82 1011.9
20260505082325 56 113 0.0 0.0 0.00 0.00 0.00 82 1011.9
20260505081825 56 113 0.0 0.0 0.00 0.00 0.00 82 1011.9
20260505081324 56 113 0.0 2.0 0.00 0.00 0.00 81 1011.5
20260505080823 56 113 0.0 2.0 0.00 0.00 0.00 81 1011.5
20260505080322 56 113 0.0 3.0 0.00 0.00 0.00 81 1011.5
20260505075820 57 129 1.0 3.0 0.00 0.00 0.00 81 1011.5
20260505075320 57 193 0.0 3.0 0.00 0.00 0.00 80 1011.5
20260505074819 57 130 2.0 3.0 0.00 0.00 0.00 80 1011.5
20260505074318 57 139 1.0 1.0 0.00 0.00 0.00 80 1011.5
20260505073817 57 139 0.0 2.0 0.00 0.00 0.00 80 1011.5
20260505073316 57 207 0.0 2.0 0.00 0.00 0.00 79 1011.5
20260505072815 57 180 1.0 2.0 0.00 0.00 0.00 79 1011.5
20260505072314 57 176 0.0 2.0 0.00 0.00 0.00 79 1011.2
20260505071813 58 164 0.0 2.0 0.00 0.00 0.00 79 1011.2
20260505071312 58 110 1.0 2.0 0.00 0.00 0.00 78 1011.2
20260505070811 58 127 0.0 2.0 0.00 0.00 0.00 78 1011.2
20260505070239 58 196 1.0 2.0 0.00 0.00 0.00 78 1011.2
20260505065737 58 131 0.0 6.0 0.00 0.00 0.00 77 1010.8
20260505065236 59 131 0.0 6.0 0.00 0.00 0.00 77 1010.8
20260505064735 59 131 0.0 6.0 0.00 0.00 0.00 77 1010.8
20260505064204 59 150 2.0 6.0 0.00 0.00 0.00 76 1010.8
20260505063702 59 193 1.0 6.0 0.00 0.00 0.00 76 1010.8
20260505063201 59 220 2.0 6.0 0.00 0.00 0.00 75 1010.8
20260505062700 60 113 3.0 6.0 0.00 0.00 0.00 75 1010.8
20260505062159 60 107 1.0 4.0 0.00 0.00 0.00 74 1010.5
20260505061658 60 174 0.0 4.0 0.00 0.00 0.00 74 1010.5
20260505061157 60 105 0.0 4.0 0.00 0.00 0.00 74 1010.5
20260505060657 61 156 2.0 4.0 0.00 0.00 0.00 73 1010.5
20260505060156 61 169 2.0 5.0 0.00 0.00 0.00 73 1010.5
20260505055655 62 51 0.0 5.0 0.00 0.00 0.00 73 1010.2
20260505055154 62 14 1.0 5.0 0.00 0.00 0.00 72 1010.2
20260505054653 62 141 2.0 5.0 0.00 0.00 0.00 71 1010.2
20260505054153 63 124 1.0 4.0 0.00 0.00 0.00 71 1010.2
20260505053652 63 162 2.0 4.0 0.00 0.00 0.00 71 1010.2
20260505053151 63 233 0.0 1.0 0.00 0.00 0.00 71 1010.2
20260505052650 63 233 0.0 1.0 0.00 0.00 0.00 70 1010.2
20260505052148 63 233 0.0 1.0 0.00 0.00 0.00 70 1009.8
20260505051617 64 233 0.0 1.0 0.00 0.00 0.00 69 1009.8
20260505051116 64 226 0.0 0.0 0.00 0.00 0.00 69 1009.8
20260505050616 64 226 0.0 3.0 0.00 0.00 0.00 68 1009.8
20260505050115 64 226 0.0 6.0 0.00 0.00 0.00 68 1009.8
20260505041536 68 229 0.0 3.0 0.00 0.00 0.00 63 1009.1
20260505041004 68 225 2.0 4.0 0.00 0.00 0.00 62 1009.1
20260505040432 68 138 2.0 4.0 0.00 0.00 0.00 62 1009.1
20260505035931 69 192 0.0 4.0 0.00 0.00 0.00 61 1009.1
20260505035431 69 273 2.0 4.0 0.00 0.00 0.00 60 1008.8
20260505034930 69 117 1.0 7.0 0.00 0.00 0.00 60 1008.8
20260505034429 70 145 0.0 7.0 0.00 0.00 0.00 59 1008.8
20260505033928 70 146 2.0 7.0 0.00 0.00 0.00 58 1008.5
20260505033427 70 132 1.0 7.0 0.00 0.00 0.00 57 1008.5
20260505032927 71 272 2.0 8.0 0.00 0.00 0.00 56 1008.5
20260505032426 71 279 4.0 8.0 0.00 0.00 0.00 55 1008.5
20260505031926 72 271 2.0 8.0 0.00 0.00 0.00 54 1008.1
20260505031425 72 264 2.0 6.0 0.00 0.00 0.00 53 1008.1
20260505030924 73 282 4.0 6.0 0.00 0.00 0.00 52 1008.1
20260505030424 73 274 2.0 6.0 0.00 0.00 0.00 51 1008.1
20260505025923 74 266 3.0 6.0 0.00 0.00 0.00 50 1008.1
20260505025350 74 272 3.0 6.0 0.00 0.00 0.00 49 1008.1
20260505024850 75 272 2.0 6.0 0.00 0.00 0.00 49 1008.1
20260505024349 76 263 1.0 5.0 0.00 0.00 0.00 48 1007.8
20260505023848 76 269 2.0 6.0 0.00 0.00 0.00 47 1007.8
20260505023245 77 256 2.0 7.0 0.00 0.00 0.00 47 1007.8
20260505022744 77 284 2.0 8.0 0.00 0.00 0.00 46 1007.8
20260505022243 78 264 2.0 8.0 0.00 0.00 0.00 46 1007.8
20260505021742 78 265 3.0 8.0 0.00 0.00 0.00 45 1007.8
20260505021242 79 276 4.0 8.0 0.00 0.00 0.00 44 1007.8
20260505020710 79 257 1.0 6.0 0.00 0.00 0.00 44 1007.8
20260505020209 80 256 3.0 6.0 0.00 0.00 0.00 43 1007.8
20260505015708 80 267 2.0 6.0 0.00 0.00 0.00 41 1007.8
20260505015207 80 261 2.0 6.0 0.00 0.00 0.00 41 1007.8
20260505014706 81 269 3.0 5.0 0.00 0.00 0.00 40 1007.8
20260505014205 81 279 2.0 5.0 0.00 0.00 0.00 38 1007.8
20260505013704 81 269 2.0 6.0 0.00 0.00 0.00 38 1007.8
20260505013204 81 248 0.0 6.0 0.00 0.00 0.00 38 1007.8
20260505012702 81 263 1.0 6.0 0.00 0.00 0.00 37 1007.8
20260505012130 81 275 3.0 6.0 0.00 0.00 0.00 37 1007.8
20260505011558 81 279 1.0 4.0 0.00 0.00 0.00 37 1007.8
20260505011058 81 287 1.0 5.0 0.00 0.00 0.00 38 1007.8
20260505010526 81 273 2.0 5.0 0.00 0.00 0.00 37 1007.8
20260505010026 81 288 2.0 5.0 0.00 0.00 0.00 37 1007.8
20260505005524 82 273 4.0 5.0 0.00 0.00 0.00 36 1008.1
20260505005023 82 259 2.0 4.0 0.00 0.00 0.00 35 1007.8
20260505004522 82 270 2.0 4.0 0.00 0.00 0.00 35 1007.8
20260505003919 82 210 2.0 4.0 0.00 0.00 0.00 35 1008.1
20260505003418 82 278 1.0 4.0 0.00 0.00 0.00 36 1008.1
20260505002917 82 273 2.0 4.0 0.00 0.00 0.00 37 1008.1
20260505002416 81 286 1.0 4.0 0.00 0.00 0.00 36 1008.1
20260505001916 82 278 2.0 4.0 0.00 0.00 0.00 36 1008.1
20260505001415 81 132 1.0 5.0 0.00 0.00 0.00 35 1008.1
20260505000914 81 232 0.0 7.0 0.00 0.00 0.00 36 1008.1
20260505000413 81 287 1.0 7.0 0.00 0.00 0.00 37 1008.1
20260504235912 81 263 2.0 7.0 0.00 0.00 0.00 36 1008.1
20260504235309 81 273 4.0 7.0 0.00 0.00 0.00 36 1008.1
20260504234808 81 281 4.0 6.0 0.00 0.00 0.00 35 1008.1
20260504234307 81 131 2.0 6.0 0.00 0.00 0.00 35 1008.1
20260504233806 82 267 3.0 6.0 0.00 0.00 0.00 34 1008.5
20260504233132 81 221 1.0 6.0 0.00 0.00 0.00 34 1008.1
20260504232631 81 227 1.0 6.0 0.00 0.00 0.00 34 1008.1
20260504232130 81 274 2.0 6.0 0.00 0.00 0.00 35 1008.5
20260504231559 81 271 3.0 6.0 0.00 0.00 0.00 35 1008.5
20260504231027 81 279 4.0 6.0 0.00 0.00 0.00 34 1008.1
20260504230455 81 273 3.0 6.0 0.00 0.00 0.00 32 1008.1
20260504225954 81 151 2.0 6.0 0.00 0.00 0.00 32 1008.5
20260504225452 82 268 3.0 6.0 0.00 0.00 0.00 32 1008.5
20260504224951 81 201 2.0 5.0 0.00 0.00 0.00 32 1008.5
20260504224450 81 227 2.0 6.0 0.00 0.00 0.00 31 1008.5
20260504223949 81 144 3.0 7.0 0.00 0.00 0.00 30 1008.8
20260504223448 81 241 2.0 7.0 0.00 0.00 0.00 31 1008.5
20260504222948 80 195 3.0 7.0 0.00 0.00 0.00 32 1008.8
20260504222416 80 183 1.0 7.0 0.00 0.00 0.00 32 1008.8
20260504221844 80 146 1.0 7.0 0.00 0.00 0.00 32 1009.1
20260504221343 80 259 2.0 5.0 0.00 0.00 0.00 32 1009.1
20260504220842 80 271 3.0 7.0 0.00 0.00 0.00 32 1009.1
20260504220341 80 280 2.0 8.0 0.00 0.00 0.00 34 1009.1
20260504215840 80 290 0.0 8.0 0.00 0.00 0.00 35 1009.1
20260504215308 79 206 2.0 11.0 0.00 0.00 0.00 39 1009.1
20260504214735 78 281 2.0 11.0 0.00 0.00 0.00 38 1009.1
20260504214234 78 237 3.0 11.0 0.00 0.00 0.00 38 1009.1
20260504213734 78 274 3.0 11.0 0.00 0.00 0.00 40 1009.1
20260504213202 79 268 4.0 7.0 0.00 0.00 0.00 37 1009.5
20260504212629 80 261 4.0 8.0 0.00 0.00 0.00 38 1009.1
20260504212129 80 208 2.0 8.0 0.00 0.00 0.00 35 1009.5
20260504211628 80 211 2.0 8.0 0.00 0.00 0.00 32 1009.5
20260504211056 79 172 3.0 8.0 0.00 0.00 0.00 30 1009.5
20260504210555 80 161 4.0 7.0 0.00 0.00 0.00 33 1009.5
20260504210055 79 199 1.0 7.0 0.00 0.00 0.00 35 1009.5
20260504205554 79 151 2.0 7.0 0.00 0.00 0.00 35 1009.5
20260504205053 79 255 2.0 7.0 0.00 0.00 0.00 34 1009.5
20260504204552 79 255 2.0 6.0 0.00 0.00 0.00 34 1009.5
20260504204051 79 178 2.0 7.0 0.00 0.00 0.00 34 1009.5
20260504203550 79 260 3.0 7.0 0.00 0.00 0.00 34 1009.5
20260504203049 79 183 1.0 7.0 0.00 0.00 0.00 34 1009.5
20260504202548 79 267 3.0 7.0 0.00 0.00 0.00 36 1009.5
20260504202047 79 152 3.0 6.0 0.00 0.00 0.00 35 1009.5
20260504201546 78 188 2.0 6.0 0.00 0.00 0.00 39 1009.5
20260504201046 78 110 2.0 7.0 0.00 0.00 0.00 38 1009.5
20260504200545 78 162 3.0 7.0 0.00 0.00 0.00 39 1009.5
20260504200044 77 149 2.0 7.0 0.00 0.00 0.00 38 1009.5
20260504195543 77 196 2.0 7.0 0.00 0.00 0.00 39 1009.5
20260504195043 78 280 3.0 6.0 0.00 0.00 0.00 37 1009.5
20260504194542 78 120 3.0 6.0 0.00 0.00 0.00 34 1009.5
20260504194041 78 231 1.0 5.0 0.00 0.00 0.00 35 1009.5
20260504193540 78 154 1.0 5.0 0.00 0.00 0.00 35 1009.5
20260504193039 77 257 2.0 5.0 0.00 0.00 0.00 36 1009.5
20260504192538 78 111 2.0 5.0 0.00 0.00 0.00 35 1009.5
20260504192038 78 219 2.0 5.0 0.00 0.00 0.00 34 1009.5
20260504191537 78 206 2.0 5.0 0.00 0.00 0.00 35 1009.8
20260504191036 78 264 2.0 5.0 0.00 0.00 0.00 35 1009.8
20260504190535 77 278 2.0 5.0 0.00 0.00 0.00 37 1009.8
20260504190035 77 121 1.0 3.0 0.00 0.00 0.00 38 1009.8
20260504185534 77 223 2.0 3.0 0.00 0.00 0.00 38 1009.8
20260504185033 75 256 1.0 3.0 0.00 0.00 0.00 42 1009.8
20260504184501 74 193 1.0 3.0 0.00 0.00 0.00 43 1009.8
20260504184000 73 45 1.0 3.0 0.00 0.00 0.00 48 1009.8
20260504183500 72 57 2.0 4.0 0.00 0.00 0.00 52 1009.8
20260504182959 72 36 2.0 4.0 0.00 0.00 0.00 52 1009.8
20260504182458 71 41 2.0 4.0 0.00 0.00 0.00 54 1009.8
20260504181957 71 38 3.0 4.0 0.00 0.00 0.00 53 1009.8
20260504181456 70 41 2.0 4.0 0.00 0.00 0.00 56 1009.8
20260504180924 70 37 2.0 4.0 0.00 0.00 0.00 56 1009.8
20260504180423 70 33 3.0 4.0 0.00 0.00 0.00 56 1009.8
20260504175923 70 36 2.0 3.0 0.00 0.00 0.00 57 1009.8
20260504175422 70 44 2.0 3.0 0.00 0.00 0.00 58 1009.8
20260504174921 70 45 2.0 3.0 0.00 0.00 0.00 58 1010.2
20260504174421 69 59 1.0 2.0 0.00 0.00 0.00 61 1010.2
20260504173849 68 41 1.0 3.0 0.00 0.00 0.00 61 1009.8
20260504173347 68 41 1.0 3.0 0.00 0.00 0.00 59 1009.8
20260504172846 68 44 1.0 3.0 0.00 0.00 0.00 60 1010.2
20260504172346 68 43 2.0 3.0 0.00 0.00 0.00 61 1010.2
20260504171845 68 58 1.0 3.0 0.00 0.00 0.00 62 1010.2
20260504171344 68 50 2.0 3.0 0.00 0.00 0.00 62 1010.2
20260504170843 67 54 1.0 2.0 0.00 0.00 0.00 62 1009.8
20260504170311 67 50 2.0 2.0 0.00 0.00 0.00 64 1009.8
20260504160228 61 113 0.0 1.0 0.00 0.00 0.00 76 1009.8
20260504150914 58 248 0.0 0.0 0.00 0.00 0.00 78 1009.8
20260504150413 57 248 0.0 0.0 0.00 0.00 0.00 79 1009.5
20260504141335 51 248 0.0 0.0 0.00 0.00 0.00 87 1009.5
20260504140833 51 248 0.0 0.0 0.00 0.00 0.00 87 1009.5
20260504140332 50 248 0.0 0.0 0.00 0.00 0.00 87 1009.1
20260504130322 49 248 0.0 0.0 0.00 0.00 0.00 88 1008.8
20260504120137 49 248 0.0 0.0 0.00 0.00 0.00 86 1008.8
20260504110525 50 248 0.0 0.0 0.00 0.00 0.00 85 1008.5